User: anonymous   Login
Location: Unspecified
(0.0000°N, 0.0000°E)
Time: 14:09:51
(UTC+02:00)
Language:

YAOGAN 3 - Orbit

View from above orbital plane
View from above orbital plane
View from above satellite
View from above satellite

Ground track
Ground track

The orbit data is extracted from the following two-line orbital elements,

1 32289U 07055A   15211.10716985  .00000409  00000-0  60246-4 0  9993
2 32289 097.9645 205.0696 0001636 074.7367 285.4016 14.80513097416919
Epoch (UTC): 30 July 2015 02:34:19
Eccentricity: 0.0001636
inclination: 97.9645°
perigee height: 626 km
apogee height: 629 km
right ascension of ascending node: 205.0696°
argument of perigee: 74.7367°
revolutions per day: 14.80513097
mean anomaly at epoch: 285.4016°
orbit number at epoch: 41691

The dashed part of the orbit path shows where the satellite is in the earth's shadow,  

DLR